Tracking 17556 objects as of 7-February-2016
HD Live streaming from Space Station
objects crossing your sky now

DMSP 5D-2 F11 DEB

Track DMSP 5D-2 F11 DEB now!
10-day predictions


NORAD ID: 29070
Int'l Code: 1991-082BR
Perigee: 788.2 km
Apogee: 809.5 km
Inclination: 98.8 °
Period: 100.7 minutes
Semi major axis: 7169 km
RCS: 0.0089 m2 (small)
Launch date: November 28, 1991
Source: United States (US)
Launch site: AIR FORCE WESTERN TEST RANGE (AFWTR)

Note: This is SATELLITE DEBRIS
Your satellite tracking list
Your tracking list is empty





NASA's NSSDC Master Catalog

Two Line Element Set (TLE):
1 29070U 91082BR  16036.95425854 +.00001904 +00000-0 +75084-3 0  9997
2 29070 098.7977 046.1364 0014884 167.4095 192.7461 14.3252178587618
Source of the keplerian elements: AFSPC

N2YO: 279